Showing default

HAWK-A, 43765

Orbit data source: Space-Track

HAWK-A, 43765 is a payload satellite owned by HawkEye 360 (US) in SSO that was launched on Mon, 03 Dec 2018 UTC via an FALCON 9 launch vehicle from the Air Force Western Test Range (AFWTR). Payload-class satellites include a variety of spacecraft equipped with specific instruments for various scientific and technological missions. These include communications satellites like Starlink; space stations such as the ISS; scientific satellites like the Hubble; Earth observation satellites from companies like Planet Labs, Umbra, and HawkEye 360; GPS; miniature CubeSats for education and research; and military/defense satellites.

Loading next visibility...
Identifier
43765, 2018-099H
Orbit
SSO
Country
Flag of USUS
Related business
Manufacturer
UTIAS-SFL
Mission
Operational Commercial Sigint
Bus & Motor
NEMO-V1, Unknown motor
Mass
12.75 kg wet, 12 kg dry
Launch date (UTC)
2018-12-03 (7 years ago)
Launch vehicle
FALCON 9
Launch site
Air Force Western Test Range (AFWTR)
Object type
Payload
Rocket body
Debris
Shape & HBR
Box + 2 Pan, 1.0 m
Radar Cross Section
0.348 m², Medium (>0.1 m² and < 1m²)

Expand to show TLE details & history
Last TLE update: 21 hours ago

TLE from 21 hours ago
0 HAWK-A
1 43765U 18099H   26034.18127377  .00008480  00000-0  36054-3 0  9994
2 43765  97.4121  88.2095 0037333  38.8310 321.5598 15.22633016392696
Epoch: 2026-02-03T04:21Z
TLE epoch observation values (Epoch: 2026-02-03T04:21:02.053Z)
Latitude
-0.00004°
Longitude
-110.41494°
Altitude
480.922 km
Speed
7.636 km/s
True Right ascension
05h 52m 50s
True Declination
0° 00' 00"
Sunlit
Object was in full shadow at epoch
Visualization orbit readout
Latitude
Unknown
Longitude
Unknown
Altitude
Unknown
Speed
Unknown
Apparent Right ascension
Unknown
Apparent Declination
Unknown
Sunlit
N/A
Visualization observer readout
Local Sidereal Time
03:32:21
Azimuth
Unknown
Elevation
Unknown
Doppler factor
Unknown
Orbital elements
Apogee altitude
520.524 km
Perigee altitude
469.206 km
Semi-major axis
6,873.002 km
Eccentricity
0.00373
Inclination
97.4121°
RAAN
88.2095°
Arg. of periapsis
38.831°
True anomaly
321.29286°
Mean anomaly
321.5598°
Eccentric anomaly
321.42643°
Mean motion
3.80911 °/min
Orbital period
94.51 mins
BSTAR
0.00036054
Loading maneuver chart data...
Computing Atmospheric mass density...
Loading historical data...
Loading historical data...
Loading historical data...
Loading historical data...
Loading historical data...
Loading historical data...
Loading historical data...

Documentation

Showing up to 5 results
|